date,City,No. Stations,Air Quality,Index Value,Prominent Pollutant
2021-07-19,Firozabad,1.0,Good,31,PM2.5
2021-07-20,Firozabad,1.0,Good,35,PM2.5
2021-07-21,Firozabad,1.0,Good,28,PM10
2021-07-22,Firozabad,1.0,Satisfactory,54,PM10
2021-07-23,Firozabad,1.0,Good,24,O3
2021-07-24,Firozabad,1.0,Good,36,NH3
2021-07-25,Firozabad,1.0,Good,32,PM2.5
2021-07-26,Firozabad,1.0,Good,40,PM2.5
2021-07-27,Firozabad,1.0,Good,49,PM10
2021-07-28,Firozabad,1.0,Satisfactory,61,PM2.5
2021-07-29,Firozabad,1.0,Good,43,PM2.5
2021-07-30,Firozabad,1.0,Good,17,CO
2021-07-31,Firozabad,1.0,Good,18,PM10
2021-08-01,Firozabad,1.0,Good,27,O3
2021-08-02,Firozabad,1.0,Good,18,CO
2021-08-03,Firozabad,1.0,Good,17,CO
2021-08-04,Firozabad,1.0,Good,18,CO
2021-08-05,Firozabad,1.0,Good,27,O3
2021-08-06,Firozabad,1.0,Good,48,PM10
2021-08-07,Firozabad,1.0,Good,37,PM2.5
2021-08-08,Firozabad,1.0,Good,46,NH3
2021-08-09,Firozabad,1.0,Good,27,PM10
2021-08-11,Firozabad,1.0,Satisfactory,100,PM10
2021-08-12,Firozabad,1.0,Satisfactory,75,PM10
2021-08-13,Firozabad,1.0,Satisfactory,79,PM10
2021-08-14,Firozabad,1.0,Satisfactory,81,PM10
2021-08-15,Firozabad,1.0,Satisfactory,78,PM10
2021-08-16,Firozabad,1.0,Satisfactory,92,PM10
2021-08-17,Firozabad,1.0,Satisfactory,95,PM10
2021-08-18,Firozabad,1.0,Satisfactory,97,PM10
2021-08-19,Firozabad,1.0,Satisfactory,80,PM10
2021-08-20,Firozabad,1.0,Good,41,PM10
2021-08-21,Firozabad,1.0,Good,20,NH3
2021-08-22,Firozabad,1.0,Good,20,PM10
2021-08-23,Firozabad,1.0,Good,35,PM2.5
2021-08-24,Firozabad,1.0,Good,44,PM10
2021-08-25,Firozabad,1.0,Good,48,PM10
2021-08-26,Firozabad,1.0,Satisfactory,70,PM10
2021-08-27,Firozabad,1.0,Satisfactory,75,PM10
2021-08-28,Firozabad,1.0,Satisfactory,87,PM10
2021-08-29,Firozabad,1.0,Good,43,PM2.5
2021-08-30,Firozabad,1.0,Good,21,PM10
2021-08-31,Firozabad,1.0,Good,25,PM10
2021-09-01,Firozabad,1.0,Moderate,108,PM10
2021-09-02,Firozabad,1.0,Good,23,PM2.5
2021-09-03,Firozabad,1.0,Good,45,PM2.5
2021-09-04,Firozabad,1.0,Good,32,PM10
2021-09-05,Firozabad,1.0,Good,44,PM10
2021-09-06,Firozabad,1.0,Satisfactory,54,PM2.5
2021-09-07,Firozabad,1.0,Good,36,PM10
2021-09-08,Firozabad,1.0,Good,26,PM10
2021-09-09,Firozabad,1.0,Good,31,PM10
2021-09-11,Firozabad,1.0,Satisfactory,76,PM10
2021-09-12,Firozabad,1.0,Good,20,PM10
2021-09-13,Firozabad,1.0,Good,29,PM10
2021-09-14,Firozabad,1.0,Good,26,PM10
2021-09-15,Firozabad,1.0,Good,32,PM10
2021-09-16,Firozabad,1.0,Good,19,PM10
2021-09-18,Firozabad,1.0,Good,26,O3
2021-09-20,Firozabad,1.0,Good,32,PM10
2021-09-21,Firozabad,1.0,Good,43,PM10
2021-09-22,Firozabad,1.0,Good,31,PM10
2021-09-23,Firozabad,1.0,Good,23,O3
2021-09-24,Firozabad,1.0,Good,36,PM10
2021-09-25,Firozabad,1.0,Good,31,PM10
2021-09-26,Firozabad,1.0,Good,28,O3
2021-09-27,Firozabad,1.0,Good,26,PM2.5
2021-09-28,Firozabad,1.0,Good,32,PM10
2021-09-29,Firozabad,1.0,Good,37,O3
2021-09-30,Firozabad,1.0,Satisfactory,75,O3
2021-10-01,Firozabad,1.0,Good,41,PM10
2021-10-02,Firozabad,1.0,Satisfactory,71,PM2.5
2021-10-03,Firozabad,1.0,Satisfactory,51,PM10
2021-10-04,Firozabad,1.0,Good,49,PM10
2021-10-05,Firozabad,1.0,Good,49,PM10
2021-10-06,Firozabad,1.0,Satisfactory,89,O3
2021-10-07,Firozabad,1.0,Satisfactory,81,PM10
2021-10-08,Firozabad,1.0,Moderate,115,PM10
2021-10-09,Firozabad,1.0,Moderate,114,PM10
2021-10-10,Firozabad,1.0,Moderate,103,PM10
2021-10-11,Firozabad,1.0,Moderate,107,PM10
2021-10-12,Firozabad,1.0,Moderate,112,PM10
2021-10-13,Firozabad,1.0,Moderate,117,PM10
2021-10-14,Firozabad,1.0,Moderate,153,PM10
2021-10-15,Firozabad,1.0,Moderate,129,PM10
2021-10-16,Firozabad,1.0,Moderate,161,PM2.5
2021-10-17,Firozabad,1.0,Moderate,116,PM2.5
2021-10-18,Firozabad,1.0,Good,26,CO
2021-10-19,Firozabad,1.0,Good,35,PM2.5
2021-10-20,Firozabad,1.0,Satisfactory,86,PM2.5
2021-10-21,Firozabad,1.0,Moderate,170,PM2.5
2021-10-22,Firozabad,1.0,Moderate,103,PM10
2021-10-23,Firozabad,1.0,Moderate,102,PM2.5
2021-10-24,Firozabad,1.0,Satisfactory,91,PM10
2021-10-25,Firozabad,1.0,Moderate,117,PM2.5
2021-10-26,Firozabad,1.0,Moderate,101,PM10
2021-10-27,Firozabad,1.0,Moderate,145,PM2.5
2021-10-28,Firozabad,1.0,Poor,208,PM2.5
2021-10-29,Firozabad,1.0,Poor,214,PM2.5
2021-10-30,Firozabad,1.0,Poor,201,PM2.5
2021-10-31,Firozabad,1.0,Poor,212,PM2.5
2021-11-01,Firozabad,1.0,Poor,244,PM2.5
2021-11-02,Firozabad,1.0,Poor,239,PM2.5
2021-11-03,Firozabad,1.0,Poor,229,PM2.5
2021-11-04,Firozabad,1.0,Very Poor,323,PM2.5
2021-11-05,Firozabad,1.0,Severe,449,PM2.5
2021-11-06,Firozabad,1.0,Severe,430,PM2.5
2021-11-07,Firozabad,1.0,Severe,443,PM2.5
2021-11-09,Firozabad,1.0,Severe,489,PM2.5
2021-11-10,Firozabad,1.0,Very Poor,400,PM2.5
2021-11-11,Firozabad,1.0,Severe,415,PM2.5
2021-11-12,Firozabad,1.0,Very Poor,361,PM2.5
2021-11-13,Firozabad,1.0,Very Poor,327,PM2.5
2021-11-14,Firozabad,1.0,Poor,210,PM2.5
2021-11-15,Firozabad,1.0,Poor,283,PM2.5
2021-11-16,Firozabad,1.0,Poor,258,PM2.5
2021-11-17,Firozabad,1.0,Poor,223,PM2.5
2021-11-18,Firozabad,1.0,Poor,258,PM2.5
2021-11-19,Firozabad,1.0,Poor,277,PM2.5
2021-11-20,Firozabad,1.0,Poor,289,PM2.5
2021-11-21,Firozabad,1.0,Poor,246,PM2.5
2021-11-22,Firozabad,1.0,Poor,204,O3
2021-11-23,Firozabad,1.0,Moderate,143,PM2.5
2021-11-24,Firozabad,1.0,Poor,215,PM2.5
2021-11-25,Firozabad,1.0,Poor,278,PM2.5
2021-11-26,Firozabad,1.0,Poor,259,PM2.5
2021-11-27,Firozabad,1.0,Poor,245,PM2.5
2021-11-28,Firozabad,1.0,Poor,253,PM2.5
2021-11-29,Firozabad,1.0,Poor,261,PM2.5
2021-11-30,Firozabad,1.0,Poor,278,PM2.5
2021-12-01,Firozabad,1.0,Very Poor,302,PM2.5
2021-12-02,Firozabad,1.0,Very Poor,350,PM2.5
2021-12-03,Firozabad,1.0,Poor,211,PM2.5
2021-12-04,Firozabad,1.0,Very Poor,360,PM2.5
2021-12-05,Firozabad,1.0,Very Poor,351,PM2.5
2021-12-06,Firozabad,1.0,Very Poor,358,PM2.5
2021-12-07,Firozabad,1.0,Poor,218,PM2.5
2021-12-08,Firozabad,1.0,Moderate,149,PM2.5
2021-12-09,Firozabad,1.0,Moderate,132,PM10
2021-12-10,Firozabad,1.0,Poor,244,PM2.5
2021-12-11,Firozabad,1.0,Poor,228,PM2.5
2021-12-13,Firozabad,1.0,Poor,258,PM2.5
2021-12-14,Firozabad,1.0,Poor,241,PM2.5
2021-12-15,Firozabad,1.0,Poor,249,PM2.5
2021-12-16,Firozabad,1.0,Poor,255,PM2.5
2021-12-17,Firozabad,1.0,Poor,215,PM2.5
2021-12-18,Firozabad,1.0,Poor,204,PM2.5
2021-12-19,Firozabad,1.0,Moderate,196,PM2.5
2021-12-20,Firozabad,1.0,Poor,243,PM2.5
2021-12-21,Firozabad,1.0,Poor,296,PM2.5
2021-12-22,Firozabad,1.0,Very Poor,320,PM2.5
2021-12-23,Firozabad,1.0,Very Poor,305,PM2.5
2021-12-24,Firozabad,1.0,Poor,242,PM2.5
2021-12-25,Firozabad,1.0,Very Poor,336,PM2.5
2021-12-26,Firozabad,1.0,Very Poor,359,PM2.5
2021-12-27,Firozabad,1.0,Poor,286,PM2.5
2021-12-28,Firozabad,1.0,Poor,219,PM2.5
2021-12-29,Firozabad,1.0,Moderate,192,PM2.5
2021-12-30,Firozabad,1.0,Poor,255,PM2.5
2021-12-31,Firozabad,1.0,Poor,246,PM2.5
2022-01-01,Firozabad,1.0,Poor,266,PM2.5
2022-01-02,Firozabad,1.0,Very Poor,311,PM2.5
2022-01-03,Firozabad,1.0,Very Poor,326,PM2.5
2022-01-04,Firozabad,1.0,Very Poor,332,PM2.5
2022-01-05,Firozabad,1.0,Very Poor,346,PM2.5
2022-01-06,Firozabad,1.0,Poor,253,PM2.5
2022-01-07,Firozabad,1.0,Moderate,147,PM2.5
2022-01-08,Firozabad,1.0,Satisfactory,71,PM2.5
2022-01-09,Firozabad,1.0,Satisfactory,65,PM2.5
2022-01-10,Firozabad,1.0,Moderate,105,PM2.5
2022-01-11,Firozabad,1.0,Moderate,153,PM2.5
2022-01-12,Firozabad,1.0,Moderate,151,PM2.5
2022-01-13,Firozabad,1.0,Poor,201,PM2.5
2022-01-14,Firozabad,1.0,Moderate,200,PM2.5
2022-01-15,Firozabad,1.0,Poor,206,PM2.5
2022-01-16,Firozabad,1.0,Poor,207,PM2.5
2022-01-17,Firozabad,1.0,Poor,210,PM2.5
2022-01-18,Firozabad,1.0,Poor,218,PM2.5
2022-01-19,Firozabad,1.0,Poor,275,PM2.5
2022-01-20,Firozabad,1.0,Poor,272,PM2.5
2022-01-21,Firozabad,1.0,Poor,232,PM2.5
2022-01-23,Firozabad,1.0,Moderate,182,PM2.5
2022-01-24,Firozabad,1.0,Poor,231,PM2.5
2022-01-25,Firozabad,1.0,Moderate,170,PM2.5
2022-01-26,Firozabad,1.0,Moderate,152,PM2.5
2022-01-27,Firozabad,1.0,Moderate,164,PM2.5
2022-01-28,Firozabad,1.0,Moderate,173,PM2.5
2022-01-29,Firozabad,1.0,Moderate,200,PM2.5
2022-01-30,Firozabad,1.0,Moderate,186,PM2.5
2022-01-31,Firozabad,1.0,Moderate,158,PM2.5
2022-02-01,Firozabad,1.0,Poor,223,PM2.5
2022-02-02,Firozabad,1.0,Poor,290,PM2.5
2022-02-03,Firozabad,1.0,Poor,259,PM2.5
2022-02-04,Firozabad,1.0,Poor,211,PM2.5
2022-02-06,Firozabad,1.0,Moderate,186,PM2.5
2022-02-07,Firozabad,1.0,Moderate,184,PM2.5
2022-02-08,Firozabad,1.0,Moderate,145,PM2.5
2022-02-09,Firozabad,1.0,Moderate,102,PM2.5
2022-02-10,Firozabad,1.0,Satisfactory,86,PM2.5
2022-02-11,Firozabad,1.0,Moderate,124,PM2.5
2022-02-12,Firozabad,1.0,Moderate,103,PM2.5
2022-02-13,Firozabad,1.0,Moderate,144,PM2.5
2022-02-14,Firozabad,1.0,Moderate,145,PM2.5
2022-02-15,Firozabad,1.0,Moderate,158,PM2.5
2022-02-16,Firozabad,2.0,Moderate,194,"PM10, PM2.5"
2022-02-17,Firozabad,2.0,Moderate,158,PM2.5
2022-02-18,Firozabad,2.0,Moderate,156,PM2.5
2022-02-19,Firozabad,1.0,Satisfactory,83,PM10
2022-02-20,Firozabad,2.0,Moderate,108,PM2.5
2022-02-21,Firozabad,2.0,Moderate,117,PM2.5
2022-02-22,Firozabad,2.0,Moderate,122,"PM10, PM2.5"
2022-02-23,Firozabad,2.0,Moderate,117,PM2.5
2022-02-24,Firozabad,2.0,Moderate,146,PM2.5
2022-02-25,Firozabad,2.0,Moderate,176,"O3, PM2.5"
2022-02-26,Firozabad,2.0,Satisfactory,87,PM10
2022-02-27,Firozabad,2.0,Satisfactory,58,"O3, PM10"
2022-02-28,Firozabad,2.0,Satisfactory,76,PM2.5
2022-03-01,Firozabad,1.0,Moderate,111,PM2.5
2022-03-02,Firozabad,1.0,Moderate,104,PM2.5
2022-03-03,Firozabad,2.0,Moderate,120,PM2.5
2022-03-04,Firozabad,2.0,Moderate,170,"O3, PM2.5"
2022-03-05,Firozabad,2.0,Satisfactory,99,PM2.5
2022-03-06,Firozabad,2.0,Moderate,102,PM2.5
2022-03-07,Firozabad,2.0,Moderate,116,PM2.5
2022-03-08,Firozabad,2.0,Moderate,159,"O3, PM2.5"
2022-03-09,Firozabad,2.0,Poor,202,"O3, PM2.5"
2022-03-10,Firozabad,2.0,Satisfactory,94,"PM10, PM2.5"
2022-03-11,Firozabad,2.0,Moderate,118,PM2.5
2022-03-12,Firozabad,2.0,Moderate,120,PM2.5
2022-03-13,Firozabad,2.0,Moderate,134,PM2.5
2022-03-14,Firozabad,2.0,Moderate,174,"O3, PM2.5"
2022-03-15,Firozabad,1.0,Moderate,178,PM2.5
2022-03-16,Firozabad,2.0,Moderate,180,PM2.5
2022-03-17,Firozabad,2.0,Moderate,162,"O3, PM2.5"
2022-03-18,Firozabad,2.0,Moderate,170,PM2.5
2022-03-19,Firozabad,2.0,Moderate,178,"O3, PM2.5"
2022-03-20,Firozabad,1.0,Moderate,173,O3
2022-03-21,Firozabad,1.0,Poor,223,O3
2022-03-22,Firozabad,1.0,Moderate,161,O3
2022-03-23,Firozabad,1.0,Moderate,136,PM2.5
2022-03-24,Firozabad,1.0,Moderate,160,O3
2022-03-25,Firozabad,1.0,Moderate,197,O3
2022-03-26,Firozabad,1.0,Moderate,114,PM2.5
2022-03-27,Firozabad,1.0,Moderate,188,O3
2022-03-28,Firozabad,1.0,Moderate,176,PM2.5
2022-03-29,Firozabad,1.0,Moderate,182,O3
2022-03-30,Firozabad,1.0,Poor,241,O3
2022-03-31,Firozabad,1.0,Moderate,150,O3
2022-04-01,Firozabad,1.0,Moderate,184,O3
2022-04-02,Firozabad,1.0,Poor,206,O3
2022-04-03,Firozabad,1.0,Moderate,156,O3
2022-04-04,Firozabad,1.0,Moderate,119,PM2.5
2022-04-05,Firozabad,1.0,Moderate,199,O3
2022-04-06,Firozabad,1.0,Poor,216,O3
2022-04-07,Firozabad,1.0,Moderate,177,O3
2022-04-08,Firozabad,1.0,Moderate,148,O3
2022-04-09,Firozabad,1.0,Moderate,199,O3
2022-04-10,Firozabad,1.0,Moderate,190,O3
2022-04-11,Firozabad,1.0,Moderate,138,O3
2022-04-12,Firozabad,1.0,Moderate,118,O3
2022-04-13,Firozabad,1.0,Moderate,134,PM2.5
2022-04-14,Firozabad,1.0,Moderate,183,O3
2022-04-16,Firozabad,1.0,Moderate,159,O3
2022-04-17,Firozabad,1.0,Poor,232,O3
2022-04-18,Firozabad,1.0,Poor,264,O3
2022-04-19,Firozabad,1.0,Moderate,168,O3
2022-04-20,Firozabad,1.0,Moderate,141,O3
2022-04-21,Firozabad,1.0,Satisfactory,97,PM2.5
2022-04-22,Firozabad,1.0,Moderate,106,PM10
2022-04-23,Firozabad,1.0,Poor,261,O3
2022-04-24,Firozabad,1.0,Moderate,148,PM2.5
2022-04-26,Firozabad,1.0,Poor,231,O3
2022-04-27,Firozabad,1.0,Moderate,145,O3
2022-04-28,Firozabad,1.0,Moderate,190,O3
2022-04-29,Firozabad,1.0,Moderate,192,O3
2022-04-30,Firozabad,1.0,Moderate,106,O3
2022-05-01,Firozabad,1.0,Moderate,196,O3
2022-05-03,Firozabad,1.0,Poor,277,O3
2022-05-04,Firozabad,2.0,Moderate,156,"O3, PM10"
2022-05-05,Firozabad,2.0,Moderate,140,"O3, PM10"
2022-05-06,Firozabad,2.0,Moderate,110,"O3, PM10"
2022-05-07,Firozabad,2.0,Moderate,126,"O3, PM10"
2022-05-08,Firozabad,2.0,Moderate,150,"O3, PM10"
2022-05-09,Firozabad,2.0,Moderate,116,"O3, PM10"
2022-05-10,Firozabad,2.0,Moderate,130,"O3, PM10"
2022-05-11,Firozabad,2.0,Satisfactory,88,"O3, PM10"
2022-05-12,Firozabad,2.0,Moderate,102,"O3, PM10"
2022-05-13,Firozabad,2.0,Satisfactory,92,"O3, PM10"
2022-05-14,Firozabad,2.0,Moderate,119,"PM10, PM2.5"
2022-05-15,Firozabad,2.0,Moderate,128,"O3, PM10"
2022-05-16,Firozabad,1.0,Moderate,160,PM10
2022-05-17,Firozabad,1.0,Moderate,186,PM10
2022-05-18,Firozabad,2.0,Moderate,166,"O3, PM10"
2022-05-19,Firozabad,2.0,Moderate,175,"O3, PM10"
2022-05-20,Firozabad,2.0,Moderate,127,PM10
2022-05-21,Firozabad,2.0,Moderate,130,PM2.5
2022-05-22,Firozabad,2.0,Moderate,162,"O3, PM10"
2022-05-23,Firozabad,2.0,Satisfactory,92,PM10
2022-05-24,Firozabad,1.0,Satisfactory,65,NO2
2022-05-25,Firozabad,1.0,Satisfactory,71,PM10
2022-05-26,Firozabad,2.0,Moderate,160,"O3, PM10"
2022-05-27,Firozabad,2.0,Moderate,124,"O3, PM10"
2022-05-28,Firozabad,1.0,Satisfactory,88,O3
2022-05-29,Firozabad,2.0,Moderate,130,PM10
2022-05-30,Firozabad,1.0,Moderate,107,PM10
2022-05-31,Firozabad,1.0,Moderate,130,PM10
2022-06-01,Firozabad,1.0,Moderate,168,PM10
2022-06-02,Firozabad,1.0,Poor,272,O3
2022-06-03,Firozabad,2.0,Moderate,196,"O3, PM10"
2022-06-04,Firozabad,2.0,Moderate,108,"O3, PM10"
2022-06-05,Firozabad,2.0,Moderate,188,"O3, PM10"
2022-06-06,Firozabad,2.0,Moderate,118,"O3, PM10"
2022-06-07,Firozabad,2.0,Moderate,164,"O3, PM10"
2022-06-08,Firozabad,2.0,Moderate,173,"O3, PM10"
2022-06-09,Firozabad,2.0,Moderate,144,"O3, PM10"
2022-06-10,Firozabad,2.0,Moderate,107,"PM10, PM2.5"
2022-06-11,Firozabad,2.0,Moderate,150,PM10
2022-06-12,Firozabad,2.0,Moderate,110,"O3, PM10"
2022-06-13,Firozabad,1.0,Satisfactory,71,PM10
2022-06-14,Firozabad,2.0,Satisfactory,78,"O3, PM10"
2022-06-15,Firozabad,2.0,Satisfactory,58,"PM10, PM2.5"
2022-06-16,Firozabad,2.0,Satisfactory,85,"O3, PM2.5"
2022-06-17,Firozabad,2.0,Satisfactory,56,"O3, PM2.5"
2022-06-19,Firozabad,2.0,Satisfactory,56,"NO2, PM2.5"
2022-06-20,Firozabad,1.0,Satisfactory,68,O3
2022-06-21,Firozabad,1.0,Moderate,107,O3
2022-06-22,Firozabad,1.0,Moderate,118,O3
2022-06-23,Firozabad,2.0,Moderate,151,"O3, PM10"
2022-06-24,Firozabad,2.0,Moderate,150,"O3, PM10"
2022-06-25,Firozabad,1.0,Poor,240,O3
2022-06-26,Firozabad,2.0,Satisfactory,80,"O3, PM10"
2022-06-27,Firozabad,2.0,Satisfactory,82,"O3, PM10"
2022-06-28,Firozabad,2.0,Moderate,119,"O3, PM10"
2022-06-29,Firozabad,2.0,Satisfactory,89,"O3, PM10"
2022-06-30,Firozabad,2.0,Good,40,"PM10, PM2.5"
2022-07-02,Firozabad,2.0,Satisfactory,67,"O3, PM2.5"
2022-07-04,Firozabad,1.0,Good,35,PM2.5
2022-07-06,Firozabad,2.0,Satisfactory,72,"O3, PM10"
2022-07-07,Firozabad,2.0,Good,50,"O3, PM10"
2022-07-08,Firozabad,1.0,Satisfactory,58,O3
2022-07-12,Firozabad,1.0,Satisfactory,74,O3
2022-07-13,Firozabad,1.0,Satisfactory,76,O3
2022-07-14,Firozabad,1.0,Satisfactory,74,O3
2022-07-15,Firozabad,1.0,Satisfactory,87,O3
2022-07-16,Firozabad,1.0,Satisfactory,98,O3
2022-07-18,Firozabad,2.0,Moderate,127,"O3, PM10"
2022-07-19,Firozabad,2.0,Moderate,147,"O3, PM10"
2022-07-20,Firozabad,2.0,Moderate,116,"O3, PM2.5"
2022-07-21,Firozabad,1.0,Satisfactory,91,O3
2022-07-22,Firozabad,2.0,Satisfactory,84,"O3, PM10"
2022-07-23,Firozabad,1.0,Satisfactory,54,O3
2022-07-24,Firozabad,1.0,Good,34,SO2
2022-07-25,Firozabad,2.0,Good,48,"NO2, O3"
2022-07-26,Firozabad,1.0,Satisfactory,62,O3
2022-07-27,Firozabad,1.0,Satisfactory,58,O3
2022-07-28,Firozabad,1.0,Satisfactory,59,O3
2022-07-29,Firozabad,2.0,Good,44,"O3, PM2.5"
2022-07-30,Firozabad,2.0,Good,42,"O3, PM2.5"
2022-07-31,Firozabad,2.0,Good,43,"O3, PM2.5"
2022-08-01,Firozabad,2.0,Good,48,"O3, PM2.5"
2022-08-02,Firozabad,1.0,Satisfactory,96,O3
2022-08-03,Firozabad,1.0,Satisfactory,83,PM2.5
2022-08-04,Firozabad,1.0,Satisfactory,71,PM2.5
2022-08-05,Firozabad,2.0,Satisfactory,60,"O3, PM10"
2022-08-06,Firozabad,2.0,Satisfactory,94,"O3, PM2.5"
2022-08-07,Firozabad,1.0,Good,46,O3
2022-08-08,Firozabad,1.0,Good,38,CO
2022-08-09,Firozabad,2.0,Satisfactory,72,"O3, PM10"
2022-08-10,Firozabad,2.0,Satisfactory,58,"O3, PM10"
2022-08-11,Firozabad,2.0,Satisfactory,68,"O3, PM10"
2022-08-12,Firozabad,2.0,Satisfactory,61,"O3, PM10"
2022-08-13,Firozabad,1.0,Good,50,PM10
2022-08-14,Firozabad,1.0,Good,48,PM10
2022-08-15,Firozabad,1.0,Good,42,PM10
2022-08-16,Firozabad,1.0,Good,29,CO
2022-08-18,Firozabad,1.0,Good,36,O3
2022-08-19,Firozabad,2.0,Satisfactory,62,PM10
2022-08-20,Firozabad,2.0,Good,49,PM2.5
2022-08-21,Firozabad,2.0,Satisfactory,65,"O3, PM2.5"
2022-08-22,Firozabad,2.0,Satisfactory,62,"O3, PM10"
2022-08-24,Firozabad,2.0,Satisfactory,54,"O3, PM10"
2022-08-25,Firozabad,2.0,Satisfactory,56,"O3, PM2.5"
2022-08-26,Firozabad,1.0,Satisfactory,67,O3
2022-08-27,Firozabad,2.0,Satisfactory,75,PM2.5
2022-08-28,Firozabad,2.0,Satisfactory,81,"PM10, SO2"
2022-08-29,Firozabad,2.0,Satisfactory,92,PM10
2022-08-30,Firozabad,2.0,Satisfactory,64,"O3, PM10"
2022-08-31,Firozabad,2.0,Moderate,113,"O3, PM2.5"
2022-09-01,Firozabad,2.0,Moderate,138,"O3, PM2.5"
2022-09-02,Firozabad,2.0,Moderate,104,"O3, PM10"
2022-09-03,Firozabad,1.0,Moderate,155,O3
2022-09-04,Firozabad,2.0,Satisfactory,98,"O3, PM2.5"
2022-09-05,Firozabad,2.0,Satisfactory,79,"O3, PM2.5"
2022-09-06,Firozabad,2.0,Moderate,147,"O3, PM2.5"
2022-09-07,Firozabad,2.0,Moderate,128,"O3, PM2.5"
2022-09-08,Firozabad,2.0,Moderate,162,"O3, PM10"
2022-09-09,Firozabad,2.0,Moderate,172,"O3, PM2.5"
2022-09-10,Firozabad,2.0,Moderate,154,"O3, PM2.5"
2022-09-11,Firozabad,1.0,Poor,238,O3
2022-09-12,Firozabad,2.0,Satisfactory,88,"O3, PM10"
2022-09-13,Firozabad,2.0,Satisfactory,52,"O3, PM2.5"
2022-09-14,Firozabad,2.0,Satisfactory,54,"O3, PM10"
2022-09-15,Firozabad,1.0,Good,29,CO
2022-09-17,Firozabad,1.0,Satisfactory,59,PM2.5
2022-09-18,Firozabad,1.0,Satisfactory,96,O3
2022-09-19,Firozabad,2.0,Satisfactory,93,"O3, PM2.5"
2022-09-20,Firozabad,2.0,Moderate,104,"O3, PM2.5"
2022-09-24,Firozabad,2.0,Moderate,121,"CO, O3"
2022-09-25,Firozabad,2.0,Satisfactory,55,"PM10, PM2.5"
2022-09-26,Firozabad,2.0,Satisfactory,62,"PM10, PM2.5"
2022-09-27,Firozabad,2.0,Satisfactory,70,PM10
2022-09-28,Firozabad,2.0,Satisfactory,95,PM10
2022-09-29,Firozabad,2.0,Moderate,111,"PM10, PM2.5"
2022-09-30,Firozabad,2.0,Moderate,108,PM10
2022-10-01,Firozabad,2.0,Moderate,180,"PM10, PM2.5"
2022-10-02,Firozabad,2.0,Moderate,120,PM10
2022-10-03,Firozabad,2.0,Moderate,146,"PM10, PM2.5"
2022-10-04,Firozabad,2.0,Moderate,108,"PM10, PM2.5"
2022-10-05,Firozabad,2.0,Satisfactory,64,"PM10, PM2.5"
2022-10-06,Firozabad,2.0,Good,34,"PM2.5, SO2"
2022-10-07,Firozabad,2.0,Good,32,"PM10, SO2"
2022-10-08,Firozabad,2.0,Good,27,"O3, SO2"
2022-10-09,Firozabad,1.0,Good,32,SO2
2022-10-10,Firozabad,1.0,Good,34,SO2
2022-10-11,Firozabad,2.0,Good,41,"PM10, SO2"
2022-10-12,Firozabad,2.0,Satisfactory,51,"PM10, SO2"
2022-10-13,Firozabad,2.0,Satisfactory,76,PM10
2022-10-14,Firozabad,1.0,Satisfactory,79,PM10
2022-10-15,Firozabad,1.0,Poor,217,PM2.5
2022-10-16,Firozabad,2.0,Moderate,114,PM2.5
2022-10-17,Firozabad,2.0,Moderate,126,PM2.5
2022-10-18,Firozabad,2.0,Satisfactory,93,PM2.5
2022-10-19,Firozabad,2.0,Moderate,157,PM2.5
2022-10-20,Firozabad,2.0,Satisfactory,66,"NO2, PM2.5"
2022-10-21,Firozabad,2.0,Satisfactory,60,"NO2, PM2.5"
2022-10-22,Firozabad,2.0,Satisfactory,88,PM2.5
2022-10-23,Firozabad,2.0,Satisfactory,76,PM2.5
2022-10-24,Firozabad,2.0,Moderate,125,PM2.5
2022-10-25,Firozabad,2.0,Moderate,198,PM2.5
2022-10-26,Firozabad,2.0,Satisfactory,94,PM2.5
2022-10-27,Firozabad,2.0,Moderate,125,PM2.5
2022-10-28,Firozabad,2.0,Moderate,109,PM2.5
2022-10-29,Firozabad,2.0,Moderate,118,PM2.5
2022-10-30,Firozabad,2.0,Moderate,116,"PM10, PM2.5"
2022-10-31,Firozabad,2.0,Satisfactory,89,PM2.5
2022-11-01,Firozabad,2.0,Moderate,162,PM2.5
2022-11-02,Firozabad,2.0,Satisfactory,94,"NO2, PM2.5"
2022-11-03,Firozabad,2.0,Moderate,156,PM2.5
2022-11-04,Firozabad,2.0,Poor,243,PM2.5
2022-11-05,Firozabad,2.0,Satisfactory,94,PM2.5
2022-11-06,Firozabad,2.0,Moderate,139,PM2.5
2022-11-07,Firozabad,2.0,Satisfactory,83,PM2.5
2022-11-08,Firozabad,2.0,Satisfactory,68,"CO, PM2.5"
2022-11-09,Firozabad,2.0,Satisfactory,58,PM10
2022-11-10,Firozabad,2.0,Moderate,113,PM2.5
2022-11-11,Firozabad,2.0,Moderate,148,PM2.5
2022-11-12,Firozabad,2.0,Satisfactory,87,"PM10, PM2.5"
2022-11-13,Firozabad,2.0,Satisfactory,83,"NO2, PM2.5"
2022-11-14,Firozabad,2.0,Satisfactory,94,"NO2, PM2.5"
2022-11-15,Firozabad,2.0,Satisfactory,84,PM2.5
2022-11-16,Firozabad,2.0,Satisfactory,85,PM2.5
2022-11-17,Firozabad,2.0,Satisfactory,71,PM2.5
2022-11-18,Firozabad,2.0,Satisfactory,72,"NO2, PM2.5"
2022-11-19,Firozabad,2.0,Satisfactory,80,PM2.5
2022-11-20,Firozabad,2.0,Moderate,116,PM2.5
2022-11-21,Firozabad,2.0,Satisfactory,96,PM2.5
2022-11-22,Firozabad,2.0,Satisfactory,85,NO2
2022-11-23,Firozabad,2.0,Satisfactory,87,NO2
2022-11-24,Firozabad,2.0,Moderate,126,PM2.5
2022-11-25,Firozabad,2.0,Satisfactory,90,PM2.5
2022-11-26,Firozabad,2.0,Satisfactory,93,"NO2, PM2.5"
2022-11-27,Firozabad,2.0,Satisfactory,92,PM2.5
2022-11-28,Firozabad,2.0,Satisfactory,100,PM2.5
2022-11-29,Firozabad,2.0,Satisfactory,94,PM2.5
2022-11-30,Firozabad,2.0,Moderate,112,PM2.5
2022-12-01,Firozabad,2.0,Moderate,154,PM2.5
2022-12-02,Firozabad,2.0,Moderate,103,"NO2, PM2.5"
2022-12-03,Firozabad,2.0,Moderate,137,PM2.5
2022-12-04,Firozabad,2.0,Moderate,138,PM2.5
2022-12-05,Firozabad,2.0,Moderate,164,PM2.5
2022-12-06,Firozabad,2.0,Satisfactory,93,PM2.5
2022-12-07,Firozabad,2.0,Satisfactory,100,PM2.5
2022-12-08,Firozabad,2.0,Satisfactory,74,PM2.5
2022-12-09,Firozabad,2.0,Satisfactory,96,PM2.5
2022-12-10,Firozabad,2.0,Moderate,158,PM2.5
2022-12-11,Firozabad,2.0,Satisfactory,88,"PM10, PM2.5"
2022-12-12,Firozabad,2.0,Good,48,PM10
2022-12-13,Firozabad,2.0,Good,46,PM10
2022-12-14,Firozabad,2.0,Satisfactory,87,PM10
2022-12-15,Firozabad,1.0,Satisfactory,93,PM10
2022-12-16,Firozabad,2.0,Moderate,104,PM2.5
2022-12-17,Firozabad,2.0,Moderate,161,PM2.5
2022-12-19,Firozabad,1.0,Moderate,161,PM2.5
2022-12-20,Firozabad,2.0,Moderate,146,PM2.5
2022-12-21,Firozabad,2.0,Moderate,120,"PM10, PM2.5"
2022-12-22,Firozabad,2.0,Satisfactory,95,"PM10, PM2.5"
2022-12-23,Firozabad,2.0,Satisfactory,85,PM10
2022-12-24,Firozabad,2.0,Satisfactory,68,PM10
2022-12-25,Firozabad,2.0,Satisfactory,76,PM10
2022-12-26,Firozabad,2.0,Moderate,101,PM10
2022-12-27,Firozabad,2.0,Satisfactory,95,PM10
2022-12-28,Firozabad,2.0,Satisfactory,87,PM10
2022-12-29,Firozabad,2.0,Moderate,112,"PM10, PM2.5"
2022-12-30,Firozabad,2.0,Moderate,146,PM2.5
2022-12-31,Firozabad,2.0,Moderate,148,PM2.5
2023-01-01,Firozabad,2.0,Satisfactory,75,PM10
2023-01-02,Firozabad,2.0,Satisfactory,62,PM10
2023-01-03,Firozabad,2.0,Satisfactory,66,PM10
2023-01-04,Firozabad,2.0,Satisfactory,91,PM10
2023-01-05,Firozabad,2.0,Moderate,106,PM10
2023-01-06,Firozabad,2.0,Satisfactory,93,PM10
2023-01-07,Firozabad,2.0,Moderate,134,PM2.5
2023-01-08,Firozabad,2.0,Poor,202,PM2.5
2023-01-09,Firozabad,2.0,Moderate,134,PM2.5
2023-01-10,Firozabad,2.0,Moderate,159,PM2.5
2023-01-11,Firozabad,2.0,Moderate,178,PM2.5
2023-01-12,Firozabad,2.0,Moderate,102,"PM10, PM2.5"
2023-01-13,Firozabad,2.0,Moderate,113,"PM10, PM2.5"
2023-01-14,Firozabad,2.0,Moderate,138,PM2.5
2023-01-15,Firozabad,2.0,Satisfactory,61,PM10
2023-01-16,Firozabad,2.0,Satisfactory,81,PM10
2023-01-17,Firozabad,2.0,Satisfactory,80,PM10
2023-01-18,Firozabad,2.0,Satisfactory,82,PM10
2023-01-19,Firozabad,2.0,Moderate,106,PM10
2023-01-20,Firozabad,1.0,Moderate,130,PM10
2023-01-21,Firozabad,2.0,Moderate,149,PM2.5
2023-01-22,Firozabad,2.0,Moderate,168,PM2.5
2023-01-23,Firozabad,2.0,Moderate,106,PM2.5
2023-01-24,Firozabad,1.0,Satisfactory,62,NO2
2023-01-25,Firozabad,2.0,Satisfactory,56,PM2.5
2023-01-26,Firozabad,2.0,Satisfactory,86,"PM10, PM2.5"
2023-01-27,Firozabad,2.0,Satisfactory,96,"PM10, PM2.5"
2023-01-28,Firozabad,2.0,Satisfactory,100,"PM10, PM2.5"
2023-01-29,Firozabad,2.0,Moderate,136,PM2.5
2023-01-31,Firozabad,1.0,Good,50,PM10
2023-02-01,Firozabad,2.0,Satisfactory,63,"PM10, PM2.5"
2023-02-02,Firozabad,2.0,Satisfactory,86,PM10
2023-02-03,Firozabad,2.0,Satisfactory,91,"PM10, PM2.5"
2023-02-04,Firozabad,2.0,Satisfactory,94,"PM10, PM2.5"